| time (UTC) | temp C | wind direction | speed KPH | gust KPH | rain 1hr cm | rain 24hr cm | rain mn cm | humidity % | barometer mb |
| 20260504141015 | 17 | 315 | 9.7 | 22.5 | 0.00 | 0.00 | 0.00 | 58 | 1013.9 |
| 20260504081016 | 8 | 270 | 1.6 | 6.4 | 0.00 | 0.00 | 0.00 | 76 | 1015.1 |
| 20260504050017 | 8 | 293 | 1.6 | 4.8 | 0.00 | 0.00 | 0.00 | 70 | 1014.8 |
| 20260504045016 | 7 | 248 | 1.6 | 6.4 | 0.00 | 0.00 | 0.00 | 70 | 1014.8 |
| 20260504044016 | 7 | 270 | 1.6 | 6.4 | 0.00 | 0.00 | 0.00 | 70 | 1014.7 |
| 20260504043017 | 7 | 0.0 | 3.2 | 0.00 | 0.00 | 0.00 | 70 | 1014.5 | |
| 20260504042016 | 7 | 270 | 1.6 | 6.4 | 0.00 | 0.00 | 0.00 | 71 | 1014.6 |
| 20260504041017 | 7 | 270 | 1.6 | 3.2 | 0.00 | 0.00 | 0.00 | 73 | 1014.5 |
| 20260504040016 | 7 | 0.0 | 1.6 | 0.00 | 0.00 | 0.00 | 73 | 1014.3 | |
| 20260504035017 | 7 | 270 | 1.6 | 6.4 | 0.00 | 0.00 | 0.00 | 73 | 1014.2 |
| 20260504034017 | 6 | 248 | 1.6 | 4.8 | 0.00 | 0.00 | 0.00 | 74 | 1014.2 |
| 20260504033017 | 6 | 0.0 | 3.2 | 0.00 | 0.00 | 0.00 | 75 | 1014.3 | |
| 20260504032017 | 6 | 0.0 | 1.6 | 0.00 | 0.00 | 0.00 | 74 | 1014.2 | |
| 20260504031058 | 7 | 0.0 | 3.2 | 0.00 | 0.00 | 0.00 | 74 | 1014.1 | |
| 20260504030037 | 7 | 0.0 | 0.0 | 0.00 | 0.00 | 0.00 | 75 | 1014.2 | |
| 20260504025018 | 7 | 0.0 | 1.6 | 0.00 | 0.00 | 0.00 | 74 | 1014.2 | |
| 20260504024017 | 7 | 0.0 | 1.6 | 0.00 | 0.00 | 0.00 | 72 | 1014.1 | |
| 20260504023037 | 7 | 0.0 | 6.4 | 0.00 | 0.00 | 0.00 | 73 | 1014.3 | |
| 20260504022038 | 7 | 0.0 | 1.6 | 0.00 | 0.00 | 0.00 | 73 | 1014.3 | |
| 20260504021016 | 7 | 0.0 | 3.2 | 0.00 | 0.00 | 0.00 | 72 | 1014.3 | |
| 20260504020017 | 7 | 0.0 | 0.0 | 0.00 | 0.00 | 0.00 | 70 | 1014.2 | |
| 20260504015017 | 8 | 0.0 | 0.0 | 0.00 | 0.00 | 0.00 | 68 | 1014.1 | |
| 20260504014016 | 8 | 0.0 | 0.0 | 0.00 | 0.00 | 0.00 | 67 | 1014.1 | |
| 20260504013017 | 8 | 0.0 | 0.0 | 0.00 | 0.00 | 0.00 | 65 | 1014.0 | |
| 20260504012038 | 9 | 0.0 | 0.0 | 0.00 | 0.00 | 0.00 | 64 | 1014.0 | |
| 20260504011017 | 10 | 0.0 | 0.0 | 0.00 | 0.00 | 0.00 | 62 | 1013.8 | |
| 20260504010017 | 10 | 0.0 | 0.0 | 0.00 | 0.00 | 0.00 | 59 | 1013.6 | |
| 20260504005017 | 11 | 0.0 | 1.6 | 0.00 | 0.00 | 0.00 | 56 | 1013.5 | |
| 20260504004017 | 11 | 0.0 | 0.0 | 0.00 | 0.00 | 0.00 | 54 | 1013.4 | |
| 20260504003037 | 12 | 0.0 | 0.0 | 0.00 | 0.00 | 0.00 | 52 | 1013.2 | |
| 20260504002016 | 12 | 0.0 | 0.0 | 0.00 | 0.00 | 0.00 | 48 | 1013.1 | |
| 20260504001016 | 13 | 0.0 | 1.6 | 0.00 | 0.00 | 0.00 | 47 | 1013.1 | |
| 20260504000016 | 13 | 0.0 | 3.2 | 0.00 | 0.00 | 0.00 | 44 | 1013.0 | |
| 20260503235017 | 13 | 315 | 3.2 | 11.3 | 0.00 | 0.00 | 0.00 | 43 | 1013.0 |
| 20260503234016 | 13 | 293 | 3.2 | 6.4 | 0.00 | 0.00 | 0.00 | 41 | 1013.0 |
| 20260503233017 | 14 | 315 | 3.2 | 8.0 | 0.00 | 0.00 | 0.00 | 40 | 1012.9 |
| 20260503232016 | 15 | 338 | 3.2 | 8.0 | 0.00 | 0.00 | 0.00 | 41 | 1013.0 |
| 20260503231016 | 15 | 293 | 4.8 | 17.7 | 0.00 | 0.00 | 0.00 | 38 | 1012.8 |
| 20260503230016 | 15 | 315 | 6.4 | 14.5 | 0.00 | 0.00 | 0.00 | 38 | 1012.7 |
| 20260503225037 | 15 | 293 | 8.0 | 19.3 | 0.00 | 0.00 | 0.00 | 37 | 1012.7 |
| 20260503224038 | 16 | 338 | 4.8 | 12.9 | 0.00 | 0.00 | 0.00 | 37 | 1012.8 |
| 20260503223016 | 16 | 338 | 4.8 | 9.7 | 0.00 | 0.00 | 0.00 | 37 | 1012.9 |
| 20260503222016 | 16 | 293 | 8.0 | 22.5 | 0.00 | 0.00 | 0.00 | 37 | 1012.8 |
| 20260503221016 | 16 | 315 | 8.0 | 22.5 | 0.00 | 0.00 | 0.00 | 37 | 1012.7 |
| 20260503220017 | 16 | 315 | 6.4 | 14.5 | 0.00 | 0.00 | 0.00 | 38 | 1012.7 |
| 20260503215017 | 16 | 315 | 9.7 | 19.3 | 0.00 | 0.00 | 0.00 | 36 | 1012.8 |
| 20260503214017 | 16 | 315 | 9.7 | 22.5 | 0.00 | 0.00 | 0.00 | 37 | 1012.9 |
| 20260503213016 | 16 | 293 | 14.5 | 27.4 | 0.00 | 0.00 | 0.00 | 37 | 1012.8 |
| 20260503212016 | 16 | 23 | 8.0 | 22.5 | 0.00 | 0.00 | 0.00 | 38 | 1012.8 |
| 20260503211016 | 16 | 315 | 6.4 | 14.5 | 0.00 | 0.00 | 0.00 | 38 | 1012.8 |
| 20260503210016 | 15 | 0 | 8.0 | 16.1 | 0.00 | 0.00 | 0.00 | 39 | 1012.9 |
| 20260503205016 | 15 | 293 | 11.3 | 29.0 | 0.00 | 0.00 | 0.00 | 39 | 1012.9 |
| 20260503204016 | 15 | 315 | 11.3 | 24.1 | 0.00 | 0.00 | 0.00 | 38 | 1012.8 |
| 20260503203017 | 15 | 293 | 9.7 | 19.3 | 0.00 | 0.00 | 0.00 | 40 | 1013.0 |
| 20260503202016 | 15 | 315 | 9.7 | 22.5 | 0.00 | 0.00 | 0.00 | 38 | 1013.0 |
| 20260503201016 | 15 | 293 | 11.3 | 20.9 | 0.00 | 0.00 | 0.00 | 40 | 1012.7 |
| 20260503200016 | 15 | 293 | 12.9 | 32.2 | 0.00 | 0.00 | 0.00 | 39 | 1012.8 |
| 20260503195016 | 15 | 315 | 11.3 | 19.3 | 0.00 | 0.00 | 0.00 | 39 | 1012.6 |
| 20260503194016 | 15 | 270 | 9.7 | 25.7 | 0.00 | 0.00 | 0.00 | 42 | 1012.9 |
| 20260503193056 | 15 | 293 | 12.9 | 29.0 | 0.00 | 0.00 | 0.00 | 39 | 1012.9 |
| 20260503192016 | 15 | 113 | 4.8 | 12.9 | 0.00 | 0.00 | 0.00 | 44 | 1013.1 |
| 20260503191016 | 15 | 23 | 8.0 | 17.7 | 0.00 | 0.00 | 0.00 | 41 | 1013.2 |
| 20260503190016 | 15 | 23 | 6.4 | 22.5 | 0.00 | 0.00 | 0.00 | 40 | 1013.3 |
| 20260503185017 | 15 | 23 | 6.4 | 16.1 | 0.00 | 0.00 | 0.00 | 41 | 1013.3 |
| 20260503184016 | 15 | 0 | 6.4 | 14.5 | 0.00 | 0.00 | 0.00 | 44 | 1013.3 |
| 20260503183016 | 14 | 293 | 12.9 | 25.7 | 0.00 | 0.00 | 0.00 | 43 | 1013.4 |
| 20260503182016 | 14 | 315 | 9.7 | 20.9 | 0.00 | 0.00 | 0.00 | 42 | 1013.5 |
| 20260503181016 | 14 | 315 | 6.4 | 20.9 | 0.00 | 0.00 | 0.00 | 45 | 1013.6 |
| 20260503180016 | 14 | 270 | 9.7 | 27.4 | 0.00 | 0.00 | 0.00 | 47 | 1013.6 |
| 20260503175016 | 14 | 68 | 6.4 | 14.5 | 0.00 | 0.00 | 0.00 | 45 | 1013.8 |
| 20260503174016 | 14 | 23 | 6.4 | 20.9 | 0.00 | 0.00 | 0.00 | 44 | 1013.8 |
| 20260503173016 | 14 | 23 | 6.4 | 11.3 | 0.00 | 0.00 | 0.00 | 47 | 1013.8 |
| 20260503172037 | 13 | 23 | 9.7 | 24.1 | 0.00 | 0.00 | 0.00 | 44 | 1013.9 |
| 20260503171036 | 13 | 23 | 6.4 | 16.1 | 0.00 | 0.00 | 0.00 | 44 | 1013.9 |